Weather reports worldwide

Advertisment
Pontevedra, Spain (8044): temperature & dewpoint: 05.12.2019 10:00:00 - 11.12.2019 10:00:00 (CET)Pontevedra, Spain (8044): wind speed: 05.12.2019 10:00:00 - 11.12.2019 10:00:00 (CET)Pontevedra, Spain (8044): wind direction: 05.12.2019 10:00:00 - 11.12.2019 10:00:00 (CET)Pontevedra, Spain (8044): reduced air pressure: 05.12.2019 10:00:00 - 11.12.2019 10:00:00 (CET)Pontevedra, Spain (8044): visibility: 05.12.2019 10:00:00 - 11.12.2019 10:00:00 (CET)Pontevedra, Spain (8044): precipitation: 05.12.2019 10:00:00 - 11.12.2019 10:00:00 (CET)
Date & Time tt [°C] td [°C] ff [km/h] ff [kn] dd ppp [hPa] vv [km] rr [mm]
11.12.2019 10:00:00 - - - - - - - -
11.12.2019 09:00:00 6,8 6,2 2 1 SE 1028,1 15 0,0
11.12.2019 08:00:00 7,6 7,0 2 1 N 1027,5 15 0,0
11.12.2019 07:00:00 8,6 8,0 4 2 N 1026,6 20 -
11.12.2019 06:00:00 8,8 8,2 8 4 NNW 1025,8 20 0,0
11.12.2019 05:00:00 9,2 8,6 8 4 NW 1025,2 20 0,0
11.12.2019 04:00:00 9,4 8,8 8 4 NNW 1024,6 16 -
11.12.2019 03:00:00 10,0 9,7 21 11 NNW 1023,6 3,7 2,0
11.12.2019 02:00:00 10,3 10,1 5 3 NNW 1022,4 1,0 8,0
11.12.2019 01:00:00 10,3 10,1 4 2 NNE 1022,8 1,7 -
11.12.2019 00:00:00 10,0 9,7 5 3 NNE 1022,9 3,8 0,8
10.12.2019 23:00:00 10,1 9,8 5 3 ESE 1023,6 8 0,0
10.12.2019 22:00:00 9,7 9,2 8 4 N 1024,1 2,9 -
10.12.2019 21:00:00 10,0 9,1 2 1 SSE 1024,6 1,8 0,6
10.12.2019 20:00:00 10,4 8,5 4 2 SW 1024,9 11 0,0
10.12.2019 19:00:00 10,4 8,0 8 4 SE 1025,3 10 -
10.12.2019 18:00:00 10,6 7,7 8 4 SE 1025,3 13 0,0
10.12.2019 17:00:00 11,2 8,1 4 2 SSE 1025,4 16 0,0
10.12.2019 16:00:00 11,7 8,2 5 3 SW 1025,8 16 -
10.12.2019 15:00:00 11,7 7,8 9 5 SW 1026,6 16 0,0
10.12.2019 14:00:00 10,6 6,7 4 2 SSE 1027,0 20 0,0
10.12.2019 13:00:00 9,3 7,1 4 2 NNW 1027,8 20 -
10.12.2019 12:00:00 8,2 6,2 4 2 SSW 1028,9 20 0,0
10.12.2019 11:00:00 6,9 5,4 2 1 N 1029,3 19 0,0
10.12.2019 10:00:00 5,2 3,7 8 4 NE 1029,1 20 -
10.12.2019 09:00:00 5,1 3,3 5 3 E 1029,4 20 0,0
10.12.2019 08:00:00 5,2 3,7 11 6 NE 1029,5 20 0,0
10.12.2019 07:00:00 5,4 4,0 5 3 ENE 1029,1 20 -
10.12.2019 06:00:00 5,7 3,9 11 6 ENE 1029,4 20 0,0
10.12.2019 05:00:00 5,9 4,1 8 4 ENE 1029,7 20 0,0
10.12.2019 04:00:00 6,3 4,1 11 6 ENE 1029,9 20 -
10.12.2019 03:00:00 6,5 4,5 8 4 E 1030,2 20 0,0
10.12.2019 02:00:00 5,9 4,7 5 3 E 1031,4 18 0,0
10.12.2019 01:00:00 6,4 5,2 15 8 ENE 1031,8 18 -
10.12.2019 00:00:00 6,9 5,4 11 6 ENE 1031,8 18 0,0
09.12.2019 23:00:00 7,3 5,9 9 5 ENE 1032,4 16 0,0
09.12.2019 22:00:00 7,0 6,1 11 6 ENE 1032,3 14 -
09.12.2019 21:00:00 7,9 6,4 11 6 ENE 1032,4 16 0,0
09.12.2019 20:00:00 8,8 7,9 8 4 ENE 1032,4 10 0,0
09.12.2019 19:00:00 9,5 8,1 2 1 S 1032,0 14 -
09.12.2019 18:00:00 10,0 8,3 5 3 SE 1031,6 11 0,0
09.12.2019 17:00:00 11,7 8,2 2 1 NE 1031,3 18 0,0
09.12.2019 16:00:00 12,8 8,9 5 3 NNW 1031,2 17 -
09.12.2019 15:00:00 12,6 9,1 4 2 NE 1031,8 16 0,0
09.12.2019 14:00:00 12,3 9,3 2 1 N 1032,3 9 0,0
09.12.2019 13:00:00 11,2 9,1 2 1 NE 1033,1 17 -
09.12.2019 12:00:00 9,0 8,4 4 2 NNW 1033,9 12 0,0
09.12.2019 11:00:00 7,9 7,5 4 2 E 1033,5 12 0,0
09.12.2019 10:00:00 6,3 5,6 4 2 S 1033,3 15 -
09.12.2019 09:00:00 6,8 5,6 9 5 E 1032,2 16 0,0
09.12.2019 08:00:00 6,9 5,8 8 4 E 1032,1 16 0,0
09.12.2019 07:00:00 6,2 5,3 4 2 E 1032,1 15 -
09.12.2019 06:00:00 6,6 5,7 9 5 ENE 1031,7 16 0,0
09.12.2019 05:00:00 6,6 5,7 13 7 E 1031,6 15 0,0
09.12.2019 04:00:00 6,1 5,4 9 5 ENE 1031,6 15 -
09.12.2019 03:00:00 6,2 5,5 8 4 ENE 1031,0 15 0,0
09.12.2019 02:00:00 6,6 6,0 11 6 ENE 1030,9 13 0,0
09.12.2019 01:00:00 6,4 5,8 8 4 NNE 1031,3 11 -
09.12.2019 00:00:00 7,4 7,0 8 4 NE 1030,4 13 0,0
08.12.2019 23:00:00 7,9 7,5 9 5 ENE 1030,2 10 0,0
08.12.2019 22:00:00 8,6 7,8 5 3 ENE 1029,9 10 -
08.12.2019 21:00:00 9,5 8,6 5 3 ENE 1028,9 9 0,0
08.12.2019 20:00:00 10,6 9,5 4 2 NW 1028,5 11 0,0
08.12.2019 19:00:00 11,6 10,7 5 3 N 1027,4 12 -
08.12.2019 18:00:00 12,3 11,7 4 2 N 1026,5 12 0,0
08.12.2019 17:00:00 13,1 13,1 5 3 WSW 1026,1 0,3 0,2
08.12.2019 16:00:00 13,3 13,3 4 2 W 1025,4 1,5 -
08.12.2019 15:00:00 13,3 13,3 2 1 WNW 1024,9 1,8 0,2
08.12.2019 14:00:00 13,1 13,1 2 1 ESE 1025,1 1,2 0,6
08.12.2019 13:00:00 12,7 12,7 0 0 N 1025,5 1,0 -
08.12.2019 12:00:00 12,4 12,4 2 1 SSW 1025,8 0,4 1,0
08.12.2019 11:00:00 12,1 12,1 4 2 NW 1025,3 0,4 1,0
08.12.2019 10:00:00 11,9 11,9 2 1 SE 1024,4 0,8 -
08.12.2019 09:00:00 11,6 11,6 4 2 NNE 1023,6 0,3 0,6
08.12.2019 08:00:00 11,7 11,7 4 2 N 1023,7 0,8 1,0
08.12.2019 07:00:00 11,5 11,5 5 3 N 1023,4 0,5 -
08.12.2019 06:00:00 11,6 11,6 2 1 NNE 1023,5 0,8 0,8
08.12.2019 05:00:00 11,6 11,6 0 0 N 1023,8 0,2 0,4
08.12.2019 04:00:00 11,5 11,5 2 1 N 1024,1 2,0 -
08.12.2019 03:00:00 11,5 11,5 2 1 WNW 1024,0 0,3 0,4
08.12.2019 02:00:00 11,5 11,5 4 2 WSW 1024,2 0,4 0,8
08.12.2019 01:00:00 11,5 11,5 2 1 SW 1024,6 0,6 -
08.12.2019 00:00:00 11,5 11,3 2 1 S 1024,6 0,8 0,4
07.12.2019 23:00:00 11,5 11,3 2 1 NW 1024,3 0,2 0,2
07.12.2019 22:00:00 11,4 11,2 2 1 NW 1024,3 0,2 -
07.12.2019 21:00:00 11,3 11,1 4 2 NNW 1024,2 0,1 0,8
07.12.2019 20:00:00 11,3 11,1 2 1 NNW 1024,1 0,4 0,6
07.12.2019 19:00:00 11,4 11,1 2 1 NNE 1023,8 1,5 -
07.12.2019 18:00:00 11,2 10,9 2 1 NNE 1023,9 1,3 0,2
07.12.2019 17:00:00 11,1 10,6 2 1 N 1023,7 1,3 0,0
07.12.2019 16:00:00 11,1 10,3 4 2 WNW 1023,3 1,6 -
07.12.2019 15:00:00 11,7 9,8 4 2 WNW 1023,3 10 0,0
07.12.2019 14:00:00 11,3 9,6 4 2 W 1023,9 13 0,0
07.12.2019 13:00:00 10,4 9,3 2 1 S 1024,7 6 -
07.12.2019 12:00:00 9,9 8,8 2 1 S 1025,2 7 0,0
07.12.2019 11:00:00 8,8 7,9 2 1 E 1025,3 19 0,0
07.12.2019 10:00:00 7,7 6,9 4 2 NNE 1024,8 10 -
07.12.2019 09:00:00 7,7 6,9 4 2 NE 1024,2 19 0,0
07.12.2019 08:00:00 7,0 6,1 5 3 ESE 1024,1 19 0,0
07.12.2019 07:00:00 7,0 6,1 2 1 ESE 1023,6 20 -
07.12.2019 06:00:00 6,5 5,6 4 2 NNE 1023,7 20 0,0
07.12.2019 05:00:00 6,8 5,9 11 6 ENE 1023,7 20 0,0
07.12.2019 04:00:00 7,1 6,4 9 5 ENE 1023,9 19 -
07.12.2019 03:00:00 6,6 5,9 4 2 NE 1024,0 11 0,0
07.12.2019 02:00:00 7,4 6,7 8 4 ENE 1024,0 14 0,0
07.12.2019 01:00:00 7,1 6,4 4 2 NE 1024,2 7 -
07.12.2019 00:00:00 8,0 7,1 9 5 NE 1024,6 14 0,0
06.12.2019 23:00:00 8,2 7,4 2 1 N 1024,5 7 0,0
06.12.2019 22:00:00 8,8 7,9 8 4 ENE 1024,0 8 -
06.12.2019 21:00:00 9,0 8,2 8 4 E 1023,7 6 0,0
06.12.2019 20:00:00 9,2 8,3 4 2 E 1023,1 6 0,0
06.12.2019 19:00:00 9,9 8,3 4 2 ESE 1022,8 15 -
06.12.2019 18:00:00 11,5 8,9 2 1 SSW 1022,7 16 0,0
06.12.2019 17:00:00 12,7 8,8 5 3 S 1022,3 19 0,0
06.12.2019 16:00:00 13,4 8,7 5 3 WSW 1021,9 16 -
06.12.2019 15:00:00 13,0 8,5 5 3 SW 1022,3 17 0,0
06.12.2019 14:00:00 12,1 9,3 4 2 NE 1023,3 15 0,0
06.12.2019 13:00:00 10,1 8,4 4 2 N 1023,8 15 -
06.12.2019 12:00:00 9,9 8,2 4 2 SW 1023,8 10 0,0
06.12.2019 11:00:00 8,9 7,7 2 1 NE 1024,5 20 0,0
06.12.2019 10:00:00 7,6 6,4 8 4 E 1024,0 20 -
06.12.2019 09:00:00 7,0 5,9 9 5 ENE 1023,0 20 0,0
06.12.2019 08:00:00 7,3 6,2 2 1 E 1022,7 20 0,0
06.12.2019 07:00:00 7,5 6,3 8 4 ENE 1022,8 20 -
06.12.2019 06:00:00 7,3 6,4 9 5 NE 1022,3 20 0,0
06.12.2019 05:00:00 7,7 6,2 8 4 ENE 1022,0 20 0,0
06.12.2019 04:00:00 7,7 6,0 5 3 E 1022,5 20 -
06.12.2019 03:00:00 7,4 6,0 11 6 NE 1022,4 20 0,0
06.12.2019 02:00:00 7,3 6,1 5 3 NE 1022,3 20 0,0
06.12.2019 01:00:00 7,6 6,2 5 3 E 1022,8 20 -
06.12.2019 00:00:00 7,9 6,7 4 2 ESE 1022,6 14 0,0
05.12.2019 23:00:00 9,4 7,0 9 5 ENE 1022,2 20 0,0
05.12.2019 22:00:00 9,5 7,3 4 2 NNE 1022,0 20 -
05.12.2019 21:00:00 10,7 7,6 9 5 ENE 1021,5 20 0,0
05.12.2019 20:00:00 10,7 7,8 5 3 NNE 1021,0 18 0,0
05.12.2019 19:00:00 11,8 8,1 4 2 NW 1020,9 20 -
05.12.2019 18:00:00 13,6 8,2 2 1 SSW 1020,1 19 0,0
05.12.2019 17:00:00 15,3 9,0 8 4 NNW 1019,9 20 0,0
05.12.2019 16:00:00 15,3 8,5 8 4 N 1019,5 20 -
05.12.2019 15:00:00 15,2 8,7 8 4 N 1019,8 20 0,0
05.12.2019 14:00:00 14,5 7,3 13 7 NNE 1020,1 20 0,0
05.12.2019 13:00:00 14,3 8,0 9 5 N 1020,8 20 -
05.12.2019 12:00:00 13,4 7,4 13 7 NNE 1021,0 20 0,0
05.12.2019 11:00:00 11,4 7,1 4 2 N 1020,6 20 0,0
05.12.2019 10:00:00 9,1 6,0 4 2 NNW 1019,6 20 -

tt = temperature
td = dewpoint
ff = wind speed
dd = wind direction
ppp = reduced air pressure
vv = visibility
rr = precipitation

Next stations